Lexington Weather

Lexington, Massachusetts, USA

74°F
8/7/2020 11:51am 
  • Lexington Conditions: Clear
  • Temperature: 74.1°F / 23.4°CWarmer 2.9°F than last hour.
  • Dew Point: 64.0°FIncreased 1.0°Fsince last hour.
  • Relative Humidity: 71%Decreased 4.0% since last hour.
  • Wind: Calm, 10-min avg: Calm, gust: 1 mph
  • Barometer: 30.13 inFalling 0.02  inHg/hr Falling Slowly
  • Visibility: 10 miles
  • Rain Today: 0.00 in
  •   

Regional Weather Roundup
for Boston / Norton, MA

        
000
ASUS41 KBOX 010104
RWRBOX

REGIONAL WEATHER ROUNDUP
NATIONAL WEATHER SERVICE BOSTON/NORTON MA
900 PM EDT FRI JUL 31 2020

NOTE:  "FAIR" INDICATES FEW OR NO CLOUDS BELOW 12,000 FEET WITH NO 
SIGNIFICANT WEATHER AND/OR OBSTRUCTIONS TO VISIBILITY.

MAZALL-010200-
EASTERN MASSACHUSETTS
  
CITY           SKY/WX    TMP DP  RH WIND       PRES   REMARKS
BOSTON         PTCLDY    70  65  84 E5        29.84R                  
BEVERLY        CLEAR     71  66  84 S3        29.83R                  
LAWRENCE       CLEAR     74  64  71 CALM      29.85R                  
BEDFORD        PTCLDY    75  63  66 E5        29.82R                  
BLUE HILL      NOT AVBL                                               
NORWOOD        CLEAR     72  61  68 E3        29.83R                  
MARSHFIELD     CLEAR     72  70  94 CALM      29.83R                  
PLYMOUTH       CLEAR     70  65  84 CALM      29.84R                  
TAUNTON        CLEAR     68  64  87 CALM      29.83R                  
NEW BEDFORD    CLEAR     71  69  93 CALM      29.83R                  
$$

MAZALL-010200-
CAPE COD AND THE ISLANDS
  
CITY           SKY/WX    TMP DP  RH WIND       PRES   REMARKS
FALMOUTH       CLEAR     72  66  83 CALM      29.83R                  
HYANNIS        PTCLDY    72  68  87 CALM      29.82R                  
CHATHAM        PTCLDY    71  67  87 CALM      29.84R                  
PROVINCETOWN   CLEAR     67  64  90 CALM      29.84R                  
NANTUCKET      CLOUDY    70  66  87 CALM      29.84R                  
MARTHAS VNYRD  MOCLDY    70  68  93 CALM      29.84R                  
$$
 
MAZALL-010200-
CENTRAL AND WESTERN MASSACHUSETTS
  
CITY           SKY/WX    TMP DP  RH WIND       PRES   REMARKS
WORCESTER      PTCLDY    77  59  53 S6        29.87R                  
FITCHBURG      CLEAR     76  60  57 CALM      29.84R                  
ORANGE         CLEAR     72  63  73 CALM      29.85R                  
SPRINGFIELD    PTCLDY    71  63  76 CALM      29.82R                  
WESTFIELD      CLEAR     74  61  63 CALM      29.83R                  
NORTH ADAMS    CLEAR     69  62  78 CALM      29.86R                  
PITTSFIELD     CLEAR     71  61  70 CALM      29.87R                  
$$
 
RIZALL-010200-
RHODE ISLAND
  
CITY           SKY/WX    TMP DP  RH WIND       PRES   REMARKS
PROVIDENCE     PTCLDY    74  68  81 S6        29.84R                  
NEWPORT        CLEAR     72  68  87 CALM      29.84R                  
BLOCK ISLAND   PTCLDY    69  66  90 E3        29.85R                  
SMITHFIELD     CLEAR     73  70  90 CALM      29.85R                  
WESTERLY       CLEAR     71  66  84 E6        29.84R                  
$$
 
CTZALL-010200-
CONNECTICUT
  
CITY           SKY/WX    TMP DP  RH WIND       PRES   REMARKS
BRADLEY INTL   PTCLDY    76  56  49 N5        29.81R                  
HARTFORD       CLEAR     78  69  73 SE5       29.81R                  
BRIDGEPORT     CLEAR     76  69  79 SW3       29.83R                  
DANBURY        CLEAR     73  66  78 CALM      29.85R                  
GROTON         CLEAR     72  68  87 CALM      29.83R                  
NEW HAVEN      CLEAR     76  71  85 CALM      29.83R                  
CHESTER        NOT AVBL                                               
MERIDEN        CLEAR     75  67  76 CALM      29.83R                  
WILLIMANTIC    MOCLDY    77  69  76 CALM      29.83R                  
OXFORD         CLEAR     73  69  87 S3        29.86R                  
$$

MEZ002-015-021-024-NHZ003-005-008-011-012-014-VTZ005-008-010200-
NORTHERN NEW ENGLAND
  
CITY           SKY/WX    TMP DP  RH WIND       PRES   REMARKS
PORTLAND ME    PTCLDY    74  63  68 CALM      29.84R                  
BANGOR ME      PTCLDY    74  60  61 NW5       29.83R                  
CONCORD NH     CLEAR     74  58  57 CALM      29.84R                  
MANCHESTER NH  PTCLDY    78  63  59 SE6       29.82R                  
NASHUA NH      PTCLDY    79  67  66 SE7       29.84R                  
PORTSMOUTH NH  PTCLDY    71  64  80 CALM      29.82R                  
JAFFREY NH     PTCLDY    69  61  75 CALM      29.88R                  
KEENE NH       CLEAR     69  64  84 CALM      29.86R                  
BURLINGTON VT  PTCLDY    76  57  51 NE3       29.87R                  
MT. WASHINGTON FOG       50  48  93 NW24        N/A  VSB 1/8          
$$

NYZ052-076-010200-
EASTERN NEW YORK
  
CITY           SKY/WX    TMP DP  RH WIND       PRES   REMARKS
ALBANY         PTCLDY    73  63  70 W3        29.84R                  
NEW YORK CITY  PTCLDY    80  67  64 S7        29.81R                  
$$
 
ANZALL-010200-
MARINE OBSERVATIONS
  
STATION/POSITION TIME  TEMP    WIND        PRES    VSBY  WAVE
                       AIR SEA DIR/SP/G                  HT/PER
                 (UTC) (F)     (DEG/KT/KT) (MB)    (MI)  (FT/S)
BOSTON BUOY      2350   73 74  130/  6/  6 1008.3          2/11
BUZZARDS BAY     0000          130/  4/  4 1010.9R
NANTUCKET SOUND  0040      77  130/  4/  6   N/A
MASS BAY-STELLWA 0004   73     170/  6/  8 1007.5R  1 3/4  2/ 6
ISLE OF SHOALS   NOT AVBL
S OF BLOCK IS    0026      75                N/A           3/ 8
$$

......................KEY.........................
  SKY/WX - SKY CONDITION/PRESENT WEATHER
  TMP    - TEMPERATURE IN FAHRENHEIT
  DWPT   - DEWPOINT IN FAHRENHEIT
  RH     - RELATIVE HUMIDITY IN PERCENT
  WIND   - DIRECTION AND SPEED IN MPH
  PRES   - MEAN SEA LEVEL PRESSURE IN INCHES OF HG
  WCI    - WIND CHILL INDEX
  VSB    - VISIBILITY IN MILES
  HX     - HEAT INDEX
  TC     - TEMPERATURE IN CELSIUS
  VRB    - VARIABLE WIND DIRECTION
  N/A    - NOT AVAILABLE
  
      

Other recent Regional Weather Roundups

Fri Aug 7, 11:04am

Fri Aug 7, 10:04am

Fri Aug 7, 9:04am

Fri Aug 7, 8:04am

Fri Aug 7, 7:04am

Fri Aug 7, 6:04am

Fri Aug 7, 5:04am

Fri Aug 7, 4:04am

Fri Aug 7, 3:04am

Fri Aug 7, 2:04am

Fri Aug 7, 1:05am

Fri Aug 7, 12:04am

Thu Aug 6, 11:04pm

Thu Aug 6, 10:04pm

Thu Aug 6, 9:04pm

Thu Aug 6, 8:04pm

Thu Aug 6, 7:04pm

Thu Aug 6, 6:04pm

Thu Aug 6, 5:04pm

Thu Aug 6, 4:05pm

Thu Aug 6, 3:04pm

Thu Aug 6, 2:05pm

Thu Aug 6, 1:04pm

Thu Aug 6, 12:04pm

Thu Aug 6, 11:04am

Thu Aug 6, 10:04am

Thu Aug 6, 9:04am

Thu Aug 6, 8:04am

Thu Aug 6, 7:04am

Thu Aug 6, 6:04am

Thu Aug 6, 5:04am

Thu Aug 6, 4:04am

Thu Aug 6, 3:04am

Thu Aug 6, 2:05am

Thu Aug 6, 1:04am

Thu Aug 6, 12:04am

Wed Aug 5, 11:04pm

Wed Aug 5, 10:04pm

Wed Aug 5, 9:04pm

Wed Aug 5, 8:05pm

Wed Aug 5, 7:04pm

Wed Aug 5, 6:04pm

Wed Aug 5, 5:04pm

Wed Aug 5, 4:05pm

Wed Aug 5, 3:04pm

Wed Aug 5, 2:04pm

Wed Aug 5, 1:04pm

Wed Aug 5, 12:04pm

Wed Aug 5, 11:04am

Wed Aug 5, 10:04am

Wed Aug 5, 9:04am

Wed Aug 5, 8:04am

Wed Aug 5, 7:04am

Wed Aug 5, 6:04am

Wed Aug 5, 5:04am

Wed Aug 5, 4:04am

Wed Aug 5, 3:04am

Wed Aug 5, 2:05am

Wed Aug 5, 1:04am

Wed Aug 5, 12:05am

Tue Aug 4, 11:05pm

Tue Aug 4, 10:05pm

Tue Aug 4, 9:04pm

Tue Aug 4, 8:04pm

Tue Aug 4, 7:05pm

Tue Aug 4, 6:05pm

Tue Aug 4, 5:05pm

Tue Aug 4, 4:05pm

Tue Aug 4, 3:04pm

Tue Aug 4, 2:05pm

Tue Aug 4, 1:04pm

Tue Aug 4, 12:05pm

Tue Aug 4, 11:04am

Tue Aug 4, 10:04am

Tue Aug 4, 9:04am

Tue Aug 4, 8:04am

Tue Aug 4, 7:04am

Tue Aug 4, 6:04am

Tue Aug 4, 5:04am

Tue Aug 4, 4:04am

Tue Aug 4, 3:04am

Tue Aug 4, 2:04am

Tue Aug 4, 1:04am

Tue Aug 4, 12:04am

Mon Aug 3, 11:04pm

Mon Aug 3, 10:04pm

Mon Aug 3, 9:04pm

Mon Aug 3, 8:05pm

Mon Aug 3, 7:04pm

Mon Aug 3, 6:04pm

Mon Aug 3, 5:04pm

Mon Aug 3, 4:05pm

Mon Aug 3, 3:04pm

Mon Aug 3, 2:04pm

Mon Aug 3, 1:04pm

Mon Aug 3, 12:05pm

Mon Aug 3, 11:04am

Mon Aug 3, 10:04am

Mon Aug 3, 9:05am

Mon Aug 3, 8:04am

Mon Aug 3, 7:04am

Mon Aug 3, 6:04am

Mon Aug 3, 5:04am

Mon Aug 3, 4:04am

Mon Aug 3, 3:04am

Mon Aug 3, 2:04am

Mon Aug 3, 1:04am

Mon Aug 3, 12:05am

Sun Aug 2, 11:04pm

Sun Aug 2, 10:04pm

Sun Aug 2, 9:04pm

Sun Aug 2, 8:04pm

Sun Aug 2, 7:04pm

Sun Aug 2, 6:04pm

Sun Aug 2, 5:04pm

Sun Aug 2, 4:05pm

Sun Aug 2, 3:04pm

Sun Aug 2, 2:05pm

Sun Aug 2, 1:04pm

Sun Aug 2, 12:04pm

Sun Aug 2, 11:04am

Sun Aug 2, 10:04am

Sun Aug 2, 9:05am

Sun Aug 2, 8:05am

Sun Aug 2, 7:04am

Sun Aug 2, 6:04am

Sun Aug 2, 5:04am

Sun Aug 2, 4:05am

Sun Aug 2, 3:04am

Sun Aug 2, 2:04am

Sun Aug 2, 1:04am

Sun Aug 2, 12:05am

Sat Aug 1, 11:04pm

Sat Aug 1, 10:04pm

Sat Aug 1, 9:04pm

Sat Aug 1, 8:05pm

Sat Aug 1, 7:04pm

Sat Aug 1, 6:04pm

Sat Aug 1, 5:05pm

Sat Aug 1, 4:05pm

Sat Aug 1, 3:04pm

Sat Aug 1, 2:04pm

Sat Aug 1, 1:04pm

Sat Aug 1, 12:04pm

Sat Aug 1, 11:05am

Sat Aug 1, 10:05am

Sat Aug 1, 9:04am

Sat Aug 1, 8:04am

Sat Aug 1, 7:04am

Sat Aug 1, 6:04am

Sat Aug 1, 5:04am

Sat Aug 1, 4:05am

Sat Aug 1, 3:04am

Sat Aug 1, 2:04am

Sat Aug 1, 1:04am

Sat Aug 1, 12:05am

Fri Jul 31, 11:05pm

Fri Jul 31, 10:04pm

Fri Jul 31, 8:05pm

Fri Jul 31, 7:05pm

Fri Jul 31, 6:04pm

Fri Jul 31, 5:04pm

Fri Jul 31, 4:05pm

Fri Jul 31, 3:04pm

Fri Jul 31, 2:05pm

Fri Jul 31, 1:04pm

Fri Jul 31, 12:04pm

Meta data:

ID: 473aa320-cde0-4379-a0cb-30892c5dfd9e
Link: https://api.weather.gov/products/473aa320-cde0-4379-a0cb-30892c5dfd9e